Regional Weather Roundup
Issued by NWS Mobile, AL

Home | Current Version | Previous Version | Text Only | Print | Product List | Glossary On
Versions: 1 2 3 4 5 6 7 8 9 10 11 12 13 14 15 16 17 18 19 20 21 22 23 24 25 26 27 28
000
ASUS44 KMOB 240512
RWRMOB
REGIONAL WEATHER ROUNDUP
NATIONAL WEATHER SERVICE MOBILE AL
1200 AM CDT SAT JUN 24 2017

NOTE: "FAIR" INDICATES FEW OR NO CLOUDS BELOW 12,000 FEET WITH NO
      SIGNIFICANT WEATHER AND/OR OBSTRUCTIONS TO VISIBILITY.

  * THESE STATIONS ARE PART OF THE UNIVERSITY OF SOUTH ALABAMA
    MESONET AND ARE NOT UNDER NWS OR FAA QUALITY CONTROL.

ALZ061>064-240600-
COASTAL ALABAMA

CITY           SKY/WX    TMP DP  RH WIND       PRES   REMARKS
MOBILE REG APT MOCLDY    80  76  87 S8        30.01R
BROOKLEY FIELD CLOUDY    80  79  96 S5        30.02R
USA CAMPUS*      N/A     77  75  94 CALM      30.00R
DOG RIVER*       N/A     79  77  94 S5        30.76R


CITY           SKY/WX    TMP DP  RH WIND       PRES   REMARKS
GULF SHORES    CLOUDY    80  80 100 S7        30.02R

$$

ALZ051>060-240600-
INTERIOR SOUTHWEST AND SOUTH CENTRAL ALABAMA

CITY           SKY/WX    TMP DP  RH WIND       PRES   REMARKS
GREENVILLE     PTCLDY    73  70  90 SW3       29.99S
EVERGREEN      CLOUDY    76  74  93 S5        30.00S
ATMORE*        NOT AVBL
ANDALUSIA/OPP  CLEAR     79  74  84 VRB3      30.01S
ANDALUSIA*       N/A     75  75 100 SW8       30.01S
FLORALA APT    MOCLDY    76  73  91 SW3       30.03S
FLORALA*         N/A     75  73  94 CALM      30.70R

$$

FLZ001>006-240600-
WESTERN FLORIDA PANHANDLE

CITY           SKY/WX    TMP DP  RH WIND       PRES   REMARKS
PENSACOLA      MOCLDY    82  76  81 S9        30.02R
NAS PENSACOLA  CLOUDY    81  75  83 S9        30.01R
MILTON         PTCLDY    77  76  96 SW3       30.02R
WHTNG S FIELD  PTCLDY    81  78  91 SW5       30.02R


CITY           SKY/WX    TMP DP  RH WIND       PRES   REMARKS
JAY*             N/A     77  77 100 S12       30.02R
DUKE FIELD     PTCLDY    78  76  94 SW5       30.02R
CRESTVIEW      CLOUDY    77  75  93 SW3       30.03R
VALPARAISO     MOCLDY    80  76  87 SW6       30.01R
DESTIN         CLOUDY    83  82  97 S10       30.01R HX  98

$$

MSZ076-079-240600-
INTERIOR SOUTHEAST MISSISSIPPI

CITY           SKY/WX    TMP DP  RH WIND       PRES   REMARKS
LEAKESVILLE*   NOT AVBL
AGRICOLA*        N/A     75  75 100 CALM      30.00R

$$

MARINE OBSERVATIONS

STATION/POSITION TIME  TEMP    WIND        PRES    WAVE
                       AIR SEA DIR/SP/G            HT/PER
                 (UTC) (F)     (DEG/KT/KT) (MB)    (FT/S)
PASCAGOULA       0448   81     190/  8/ 11 1016.0R
PETIT BOIS ISLND 0448   81     190/ 13/ 15 1016.7R
GRAND BAY        0345   81     190/ 11     1016.0S
KATRINA CUT      0430   81     210/ 13     1015.9R
CEDAR POINT      0430   82     210/ 13     1015.9S
E DAUPHIN ISLAND 0400   81     180/ 12/ 14 1015.5R
MIDDLE BAY LIGHT 0330   81     180/ 12     1015.6R
USCG MOBILE BAY  0448   80 81  220/  4/  8 1016.7R
STATE DOCKS      0448   81 80              1015.9R
MEAHER PARK      0430   81     180/ 12     1015.9R
FORT MORGAN      0448   81     200/ 14/ 15   N/A
12 S ORANGE BCH  0350   81 81  180/ 12/ 16 1015.3S   3/ 6
PENSACOLA BAY    0442   81 83              1016.5R
64 S DAUPHIN ISL 0450   81 82  170/ 10/ 14 1016.0R   4/ 6
67 S FORT MORGAN 0430   80     180/ 14     1015.9F

$$

SELECTED LOCATIONS ACROSS THE REGION

CITY           SKY/WX    TMP DP  RH WIND       PRES   REMARKS
NEW ORLEANS    MOCLDY    80  78  94 S6        29.99R
GULFPORT       CLOUDY    81  79  94 W6        29.99R
PASCAGOULA AP  CLOUDY    81  76  84 S5        30.00R
PASCAGOULA*    NOT AVBL
HATTIESBURG    CLOUDY    76  73  91 S5        30.01R
LAUREL         CLOUDY    73  72  94 S5        30.02S
MERIDIAN       CLOUDY    76  75  97 S7        29.98R
JACKSON        LGT RAIN  73  71  93 S3        29.98F FOG
MONTGOMERY     PTCLDY    75  70  84 S3        29.99R
TROY           PTCLDY    73  73 100 CALM      30.01R
ASHFORD*         N/A     75  75 100 SW8       30.01S
DOTHAN         CLEAR     76  75  97 SW8       30.04S
PANAMA CITY    PTCLDY    78  75  90 SE6       30.00F

$$





USA.gov is the U.S. government's official web portal to all federal, state and local government web resources and services.